Location: *
(40.4270°N, 9.4940°E)
Time: 10:56:43
(UTC+02:00)

Okean 2 - Visible Passes

Search period start: 22 April 2018 00:00
Search period end: 02 May 2018 00:00
Orbit: 561 x 578 km, 82.5° (Epoch: 21 April)

Date Brightness Start Highest point End Pass type
(mag) Time Alt. Az. Time Alt. Az. Time Alt. Az.
22 Apr 5.0 03:55:09 26° NNW 03:55:09 26° NNW 03:57:15 10° N visible
23 Apr 6.4 02:20:54 12° NE 02:20:54 12° NE 02:21:21 10° NE visible
23 Apr 5.2 03:57:01 22° NNW 03:57:01 22° NNW 03:58:54 10° NNW visible
24 Apr 6.3 02:22:44 14° NE 02:22:44 14° NE 02:23:32 10° NE visible
24 Apr 5.4 03:58:52 19° NW 03:58:52 19° NW 04:00:29 10° NNW visible
25 Apr 6.2 02:24:34 16° NE 02:24:34 16° NE 02:25:37 10° NNE visible
25 Apr 5.6 04:00:41 16° NW 04:00:41 16° NW 04:02:00 10° NNW visible
26 Apr 6.0 02:26:23 18° NE 02:26:23 18° NE 02:27:36 10° NNE visible
26 Apr 5.8 04:02:30 13° NW 04:02:30 13° NW 04:03:23 10° NNW visible
27 Apr 5.9 02:28:11 19° NNE 02:28:11 19° NNE 02:29:32 10° NNE visible
27 Apr 6.0 04:04:18 11° NW 04:04:18 11° NW 04:04:33 10° NW visible
28 Apr 5.8 02:29:58 21° NNE 02:29:58 21° NNE 02:31:25 10° NNE visible
29 Apr 5.8 02:31:45 22° N 02:31:45 22° N 02:33:15 10° N visible
30 Apr 5.7 02:33:31 22° N 02:33:31 22° N 02:35:02 10° N visible
01 May 5.7 02:35:16 21° N 02:35:16 21° N 02:36:47 10° N visible
